Weather History for K0A9 - May, 2014

Change the Weather History Date:

Sunday, May 4, 2014

  Actual Average (KTRI) Record (KTRI)
Temperature  
Mean Temperature 58 °F 60 °F  
Max Temperature 78 °F 73 °F 88 °F (1938)
Min Temperature 39 °F 48 °F 30 °F (1986)
Degree Days  
Heating Degree Days 6 5  
Month to date heating degree days 23  
Since 1 July heating degree days 4277  
Cooling Degree Days 0 1  
Month to date cooling degree days 4  
Year to date cooling degree days 15  
Growing Degree Days 8 (Base 50)    
Moisture  
Dew Point 45 °F    
Average Humidity 63    
Maximum Humidity 100    
Minimum Humidity 32    
Precipitation  
Precipitation 0.00 in 0.12 in 1.18 in (1948)
Month to date precipitation 0.47  
Year to date precipitation 14.06  
Snow  
Snow 0.00 in 0.00 in - ()
Month to date snowfall 0.0  
Since 1 July snowfall 13.3  
Snow Depth -    
Sea Level Pressure  
Sea Level Pressure 30.01 in    
Wind  
Wind Speed 2 mph (WSW)    
Max Wind Speed 20 mph    
Max Gust Speed 28 mph    
Visibility 10 miles    
Events      
T = Trace of Precipitation, MM = Missing Value Source: NWS Daily Summary

Daily Weather History Graph

Daily Weather History Graph

Search for Another Location

Airport or City:

Trip Planner

Search our weather history database for the weather conditions in past years. The results will help you decide how hot, cold, wet, or windy it might be!

Date:

Astronomy

May. 04, 2014 Rise Set
Actual Time 6:32 AM EDT 8:19 PM EDT
Civil Twilight 6:04 AM EDT 8:47 PM EDT
Nautical Twilight 5:30 AM EDT 9:20 PM EDT
Astronomical Twilight 4:55 AM EDT 9:56 PM EDT
Moon 10:55 AM EDT (5/4) 12:22 AM EDT (5/4)
Length of Visible Light 14h 42m
Length of Day
13h 46m
Waxing Crescent, 27% of the Moon is Illuminated
May 4
Waxing Crescent
May 6
First Quarter
May 14
Full
May 21
Last Quarter
May 28
New

Hourly Weather History & Observations

Time (EDT) Temp. Dew Point Humidity Pressure Visibility Wind Dir Wind Speed Gust Speed Precip Events Conditions
12:15 AM 46.4 °F 42.8 °F 87% 30.02 in 10.0 mi Calm Calm - N/A   Clear
12:35 AM 46.4 °F 42.8 °F 87% 30.02 in 10.0 mi Calm Calm - N/A   Clear
12:55 AM 44.6 °F 42.8 °F 93% 30.02 in 10.0 mi Calm Calm - N/A   Clear
1:15 AM 44.6 °F 41.0 °F 87% 30.03 in 10.0 mi Calm Calm - N/A   Clear
1:35 AM 44.6 °F 41.0 °F 87% 30.03 in 10.0 mi Calm Calm - N/A   Clear
1:55 AM 44.6 °F 41.0 °F 87% 30.03 in 10.0 mi Calm Calm - N/A   Clear
2:15 AM 42.8 °F 41.0 °F 93% 30.03 in 10.0 mi Calm Calm - N/A   Clear
2:35 AM 42.8 °F 39.2 °F 87% 30.03 in 10.0 mi Calm Calm - N/A   Clear
2:55 AM 42.8 °F 39.2 °F 87% 30.03 in 10.0 mi Calm Calm - N/A   Clear
3:15 AM 42.8 °F 39.2 °F 87% 30.03 in 10.0 mi Calm Calm - N/A   Clear
3:35 AM 42.8 °F 39.2 °F 87% 30.04 in 10.0 mi Calm Calm - N/A   Clear
3:55 AM 42.8 °F 39.2 °F 87% 30.04 in 10.0 mi Calm Calm - N/A   Clear
4:15 AM 41.0 °F 39.2 °F 93% 30.04 in 10.0 mi Calm Calm - N/A   Clear
4:35 AM 41.0 °F 39.2 °F 93% 30.04 in 10.0 mi Calm Calm - N/A   Clear
4:55 AM 39.2 °F 39.2 °F 100% 30.04 in 10.0 mi Calm Calm - N/A   Clear
5:15 AM 39.2 °F 39.2 °F 100% 30.04 in 10.0 mi Calm Calm - N/A   Clear
5:55 AM 39.2 °F 39.2 °F 100% 30.05 in 10.0 mi Calm Calm - N/A   Clear
6:15 AM 39.2 °F 37.4 °F 93% 30.05 in 10.0 mi Calm Calm - N/A   Clear
6:35 AM 39.2 °F 39.2 °F 100% 30.06 in 10.0 mi Calm Calm - N/A   Clear
6:55 AM 39.2 °F 39.2 °F 100% 30.06 in 10.0 mi Calm Calm - N/A   Clear
7:15 AM 41.0 °F 39.2 °F 93% 30.07 in 10.0 mi Calm Calm - N/A   Clear
7:35 AM 42.8 °F 41.0 °F 93% 30.07 in 10.0 mi Calm Calm - N/A   Clear
7:55 AM 46.4 °F 42.8 °F 87% 30.07 in 10.0 mi Calm Calm - N/A   Clear
8:15 AM 48.2 °F 42.8 °F 82% 30.07 in 10.0 mi Calm Calm - N/A   Clear
8:35 AM 50.0 °F 44.6 °F 82% 30.07 in 10.0 mi Calm Calm - N/A   Clear
8:55 AM 53.6 °F 44.6 °F 72% 30.07 in 10.0 mi Calm Calm - N/A   Clear
9:15 AM 57.2 °F 46.4 °F 67% 30.07 in 10.0 mi Calm Calm - N/A   Clear
9:55 AM 64.4 °F 46.4 °F 52% 30.07 in 10.0 mi SW 8.1 mph - N/A   Clear
10:15 AM 66.2 °F 46.4 °F 49% 30.06 in 10.0 mi Calm Calm - N/A   Clear
10:35 AM 66.2 °F 46.4 °F 49% 30.06 in 10.0 mi Calm Calm - N/A   Clear
10:55 AM 69.8 °F 46.4 °F 43% 30.06 in 10.0 mi Calm Calm - N/A   Clear
11:15 AM 69.8 °F 44.6 °F 40% 30.05 in 10.0 mi WSW 9.2 mph 13.8 mph N/A   Clear
11:35 AM 71.6 °F 46.4 °F 41% 30.05 in 10.0 mi WSW 11.5 mph 15.0 mph N/A   Clear
11:55 AM 71.6 °F 44.6 °F 38% 30.05 in 10.0 mi Variable 4.6 mph - N/A   Clear
12:15 PM 71.6 °F 44.6 °F 38% 30.04 in 10.0 mi West 9.2 mph - N/A   Clear
12:35 PM 73.4 °F 46.4 °F 38% 30.03 in 10.0 mi West 10.4 mph 16.1 mph N/A   Clear
12:55 PM 73.4 °F 46.4 °F 38% 30.02 in 10.0 mi WNW 11.5 mph 19.6 mph N/A   Clear
1:15 PM 75.2 °F 46.4 °F 36% 30.01 in 10.0 mi WSW 10.4 mph 26.5 mph N/A   Clear
1:35 PM 75.2 °F 44.6 °F 34% 30.01 in 10.0 mi WSW 16.1 mph 23.0 mph N/A   Clear
1:55 PM 75.2 °F 46.4 °F 36% 30.01 in 10.0 mi WNW 12.7 mph 20.7 mph N/A   Clear
2:15 PM 77.0 °F 46.4 °F 34% 30.01 in 10.0 mi West 13.8 mph 19.6 mph N/A   Clear
2:35 PM 77.0 °F 46.4 °F 34% 29.99 in 10.0 mi WSW 11.5 mph 20.7 mph N/A   Clear
2:55 PM 77.0 °F 46.4 °F 34% 29.99 in 10.0 mi WSW 5.8 mph 18.4 mph N/A   Clear
3:15 PM 78.8 °F 48.2 °F 34% 29.98 in 10.0 mi Variable 3.5 mph - N/A   Clear
3:35 PM 78.8 °F 46.4 °F 32% 29.97 in 10.0 mi WSW 15.0 mph 18.4 mph N/A   Clear
3:55 PM 78.8 °F 46.4 °F 32% 29.96 in 10.0 mi SW 15.0 mph - N/A   Clear
4:15 PM 78.8 °F 48.2 °F 34% 29.95 in 10.0 mi Calm Calm - N/A   Clear
4:35 PM 78.8 °F 46.4 °F 32% 29.95 in 10.0 mi WNW 19.6 mph 27.6 mph N/A   Clear
4:55 PM 78.8 °F 46.4 °F 32% 29.95 in 10.0 mi Calm Calm - N/A   Clear
5:15 PM 78.8 °F 46.4 °F 32% 29.94 in 10.0 mi WSW 13.8 mph 20.7 mph N/A   Clear
5:35 PM 78.8 °F 48.2 °F 34% 29.94 in 10.0 mi WSW 10.4 mph 21.9 mph N/A   Clear
5:55 PM 78.8 °F 46.4 °F 32% 29.94 in 10.0 mi West 6.9 mph 19.6 mph N/A   Clear
6:15 PM 77.0 °F 46.4 °F 34% 29.93 in 10.0 mi Calm Calm - N/A   Clear
6:35 PM 77.0 °F 46.4 °F 34% 29.93 in 10.0 mi WSW 11.5 mph 25.3 mph N/A   Clear
6:55 PM 77.0 °F 46.4 °F 34% 29.93 in 10.0 mi WSW 9.2 mph 18.4 mph N/A   Clear
7:15 PM 75.2 °F 48.2 °F 38% 29.94 in 10.0 mi West 6.9 mph 17.3 mph N/A   Clear
7:35 PM 75.2 °F 48.2 °F 38% 29.94 in 10.0 mi WSW 4.6 mph 17.3 mph N/A   Clear
7:55 PM 73.4 °F 48.2 °F 41% 29.95 in 10.0 mi Calm Calm - N/A   Clear
8:15 PM 71.6 °F 48.2 °F 43% 29.96 in 10.0 mi Calm Calm - N/A   Clear
8:35 PM 71.6 °F 48.2 °F 43% 29.96 in 10.0 mi Calm Calm - N/A   Clear
8:55 PM 66.2 °F 51.8 °F 60% 29.96 in 10.0 mi Calm Calm - N/A   Clear
9:15 PM 62.6 °F 51.8 °F 68% 29.97 in 10.0 mi Calm Calm - N/A   Clear
9:35 PM 60.8 °F 51.8 °F 72% 29.97 in 10.0 mi Calm Calm - N/A   Clear
9:55 PM 59.0 °F 51.8 °F 77% 29.97 in 10.0 mi Calm Calm - N/A   Clear
10:15 PM 57.2 °F 51.8 °F 82% 29.97 in 10.0 mi Calm Calm - N/A   Clear
10:35 PM 57.2 °F 51.8 °F 82% 29.98 in 10.0 mi Calm Calm - N/A   Clear
10:55 PM 57.2 °F 51.8 °F 82% 29.98 in 10.0 mi Calm Calm - N/A   Clear
11:15 PM 55.4 °F 51.8 °F 88% 29.98 in 10.0 mi Calm Calm - N/A   Clear
11:35 PM 55.4 °F 50.0 °F 82% 29.99 in 10.0 mi Calm Calm - N/A   Clear
11:55 PM 55.4 °F 50.0 °F 82% 29.99 in 10.0 mi Calm Calm - N/A   Clear